TimeMST,TemperatureF,Dew PointF,Humidity,Sea Level PressureIn,VisibilityMPH,Wind Direction,Wind SpeedMPH,Gust SpeedMPH,PrecipitationIn,Events,Conditions,WindDirDegrees,DateUTC
12:52 AM,19.0,7.0,59,29.76,10.0,North,9.2,-,N/A,,Partly Cloudy,360,2013-02-18 07:52:00
1:52 AM,19.9,9.0,62,29.74,10.0,Calm,Calm,-,N/A,,Clear,0,2013-02-18 08:52:00
2:52 AM,12.9,7.0,77,29.74,10.0,Calm,Calm,-,N/A,,Clear,0,2013-02-18 09:52:00
3:52 AM,12.0,6.1,77,29.75,10.0,WSW,4.6,-,N/A,,Scattered Clouds,240,2013-02-18 10:52:00
4:52 AM,16.0,9.0,74,29.80,10.0,NW,6.9,-,N/A,,Mostly Cloudy,320,2013-02-18 11:52:00
5:52 AM,23.0,8.1,53,29.84,10.0,North,18.4,-,N/A,,Overcast,350,2013-02-18 12:52:00
6:52 AM,21.9,1.0,40,29.90,10.0,NNW,25.3,33.4,N/A,,Clear,340,2013-02-18 13:52:00
7:52 AM,23.0,1.9,40,29.97,10.0,North,17.3,26.5,N/A,,Clear,350,2013-02-18 14:52:00
8:52 AM,26.1,1.0,34,30.01,10.0,NNW,15.0,-,N/A,,Clear,340,2013-02-18 15:52:00
9:52 AM,27.0,1.0,33,30.04,10.0,NNW,15.0,24.2,N/A,,Clear,330,2013-02-18 16:52:00
10:52 AM,30.0,-4.0,23,30.04,10.0,NNW,11.5,-,N/A,,Clear,340,2013-02-18 17:52:00
11:52 AM,32.0,-7.1,18,30.04,10.0,North,8.1,-,N/A,,Clear,350,2013-02-18 18:52:00
12:52 PM,34.0,-14.1,12,30.03,10.0,NW,9.2,-,N/A,,Clear,320,2013-02-18 19:52:00
1:52 PM,35.1,-11.9,13,30.01,10.0,North,5.8,-,N/A,,Clear,350,2013-02-18 20:52:00
2:52 PM,37.0,-8.0,14,30.04,10.0,Calm,Calm,-,N/A,,Clear,0,2013-02-18 21:52:00
3:52 PM,35.1,-9.0,15,30.06,10.0,SSE,3.5,-,N/A,,Clear,160,2013-02-18 22:52:00
4:52 PM,36.0,-9.0,14,30.05,10.0,Calm,Calm,-,N/A,,Clear,0,2013-02-18 23:52:00
5:52 PM,27.0,-5.1,25,30.07,10.0,NE,5.8,-,N/A,,Clear,50,2013-02-19 00:52:00
6:52 PM,21.9,-4.0,32,30.13,10.0,NE,6.9,-,N/A,,Clear,40,2013-02-19 01:52:00
7:52 PM,21.0,-4.0,33,30.15,10.0,NE,10.4,-,N/A,,Clear,40,2013-02-19 02:52:00
8:52 PM,19.9,-4.0,35,30.15,10.0,NNE,5.8,-,N/A,,Clear,20,2013-02-19 03:52:00
9:52 PM,14.0,1.9,59,30.19,10.0,WNW,6.9,-,N/A,,Clear,290,2013-02-19 04:52:00
10:52 PM,14.0,1.0,56,30.18,10.0,Calm,Calm,-,N/A,,Clear,0,2013-02-19 05:52:00
11:52 PM,6.1,-2.0,69,30.23,10.0,SSE,9.2,-,N/A,,Clear,160,2013-02-19 06:52:00